[[{"header":{"parameterUnit":"m.s-1","parameterCategory":1,"la1":30.2991,"la2":30.254,"lo1":-89.0895,"lo2":-89.0444,"dy":0.0017,"dx":0.0017,"nx":28,"ny":28,"refTime":"2025-11-08T09:00:00:Z","depth":0,"parameterNumber":2,"parameterNumberName":"U-component_of_WINDS"},"data":[0,0,0,0,0,0,0,0,0,0,0,0,0,0,0,0,0,0,0,0,0,0,0,0,0,0,0,0,0,0,0,0,0,0,0,0,0,0,0,0,0,0,0,0,0,0,0,0,0,0,0,0,0,0,0,0,0,0,1.1295,1.1295,0,1.128,1.128,1.128,1.1298,1.1299,1.1299,1.13,1.1287,1.1286,1.1285,0,0,0,0,0,0,0,0,0,0,0,0,0,1.1343,1.1342,1.1295,1.1295,1.1294,1.128,1.128,1.128,1.1298,1.1299,1.1299,1.13,1.1287,1.1286,1.1285,0,0,0,0,0,0,0,0,0,0,0,0,0,1.1324,1.1341,1.1295,1.1302,1.1302,1.128,1.128,1.128,1.1298,1.1299,1.13,1.1301,1.1288,1.1286,1.1285,1.1257,0,0,1.1281,1.128,0,0,0,0,0,0,0,0,1.1325,1.1323,1.1301,1.1301,1.1302,1.1292,1.1292,1.1272,1.1297,1.1299,1.13,1.1301,1.1288,1.1287,1.1282,1.1256,1.1255,1.1281,1.128,1.1279,1.1279,0,0,0,0,0,0,0,1.1327,1.1323,1.1289,1.13,1.1301,1.1307,1.1306,1.1289,1.1288,1.1299,1.1301,1.1299,1.1289,1.1283,1.1282,1.1255,1.1281,1.1279,1.1278,1.1278,1.121,1.1209,0,0,0,0,0,0,1.1327,1.1324,1.129,1.1289,1.1316,1.1305,1.1304,1.1294,1.1289,1.1289,1.1298,1.1299,1.1285,1.1283,1.1281,1.125,1.1279,1.1278,1.1277,1.1211,1.121,1.1209,0,0,0,0,0,0,1.1328,1.1323,1.129,1.1307,1.1303,1.1303,1.1293,1.1293,1.1288,1.1287,1.1288,1.1292,1.1286,1.1283,1.1264,1.125,1.1277,1.1276,1.1212,1.1211,1.1209,1.1186,0,0,0,0,0,0,1.1329,1.1324,1.1311,1.1306,1.1302,1.1271,1.1292,1.1292,1.1285,1.1287,1.1282,1.1282,1.1286,1.1266,1.1262,1.1248,1.1275,1.1213,1.1212,1.121,1.1188,1.1184,1.118,0,0,0,0,0,1.133,1.1304,1.131,1.1306,1.1286,1.127,1.1267,1.1272,1.1284,1.1273,1.1273,1.1282,1.1252,1.1263,1.126,1.1245,1.1214,1.1212,1.121,1.1189,1.1184,1.118,0,0,0,0,0,0,1.1307,1.1304,1.131,1.1282,1.1276,1.1273,1.1258,1.1266,1.1257,1.126,1.1267,1.1266,1.1245,1.1243,1.1256,1.122,1.1235,1.1233,1.1221,1.1216,1.1213,1.1213,1.1274,0,0,0,0,0,1.1298,1.1284,1.1283,1.1258,1.1255,1.1257,1.125,1.1255,1.1249,1.1247,1.1246,1.1241,1.1231,1.1224,1.1214,1.1188,1.1189,1.1177,1.1173,1.117,1.1167,1.1157,1.1153,1.1202,1.1202,1.1202,0,0,1.128,1.1277,1.1267,1.1253,1.1249,1.1236,1.1255,1.1239,1.123,1.1245,1.1226,1.1226,1.1221,1.1199,1.1189,1.1197,1.1155,1.1168,1.1165,1.1164,1.1155,1.115,1.1146,1.1201,1.1201,1.1201,0,0,1.1241,1.1236,1.1216,1.1213,1.1207,1.121,1.1206,1.1202,1.1203,1.1184,1.1196,1.1187,1.1168,1.1165,1.1161,1.1127,1.1136,1.1124,1.1104,1.1094,1.109,1.1087,1.1076,1.1072,1.1121,1.1121,1.1121,0,1.1219,1.1199,1.1205,1.119,1.1185,1.1199,1.118,1.1177,1.1168,1.1165,1.1174,1.1154,1.1152,1.1131,1.1123,1.1119,1.1116,1.1124,1.109,1.1087,1.1084,1.1074,1.1069,1.112,1.112,1.112,1.112,0,1.1174,1.116,1.1145,1.1137,1.113,1.1113,1.112,1.1112,1.1119,1.1122,1.1105,1.1104,1.1096,1.1092,1.1097,1.1073,1.1078,1.1088,1.1104,1.1077,1.1068,1.1064,1.1118,1.1118,1.1119,1.1119,0,0,1.1115,1.1115,1.1109,1.1108,1.1105,1.1095,1.1081,1.1073,1.1068,1.1063,1.1053,1.1039,1.105,1.1046,1.1052,1.1043,1.1019,1.1055,1.1056,1.105,1.0995,1.0987,1.0983,1.1026,1.1025,1.1025,1.0996,0,1.1077,1.105,1.1059,1.1033,1.1022,1.1038,1.1026,1.1024,1.1028,1.102,1.1025,1.1015,1.1029,1.1028,1.102,1.1024,1.1008,1.1026,1.1018,1.1018,1.1018,1.0978,1.0968,1.0941,1.0993,1.0992,1.0991,0,1.1027,1.1022,1.0995,1.0998,1.0994,1.0983,1.0979,1.0971,1.0971,1.0975,1.0972,1.0982,1.0971,1.0988,1.0974,1.0986,1.0984,1.0986,1.0985,1.0984,1.1002,1.0976,1.0932,1.0928,1.0986,1.0986,1.0986,0,1.0988,1.0975,1.0958,1.0956,1.0959,1.0951,1.0952,1.0953,1.095,1.0947,1.0946,1.0942,1.0939,1.0937,1.0947,1.0958,1.0933,1.095,1.0937,1.0937,1.093,1.093,1.0885,1.0928,1.0928,1.0929,1.0929,0,1.0944,1.0928,1.0941,1.0931,1.0914,1.0926,1.091,1.0913,1.0915,1.0907,1.0921,1.0914,1.0927,1.0922,1.093,1.0919,1.0918,1.0922,1.0924,1.092,1.092,1.0918,1.092,1.0927,1.0928,1.0928,1.0928,0,1.0897,1.0905,1.0888,1.0894,1.0895,1.0883,1.0889,1.0881,1.0887,1.0877,1.0876,1.0886,1.0881,1.0891,1.0887,1.0893,1.0878,1.0883,1.0877,1.0879,1.0866,1.0867,1.0818,1.0813,1.0859,1.0859,1.0859,0,1.0868,1.0856,1.0861,1.0857,1.0858,1.0851,1.0848,1.0861,1.0857,1.086,1.0852,1.0849,1.0847,1.0839,1.0847,1.0846,1.0851,1.0835,1.0851,1.0849,1.0852,1.0853,1.0853,1.083,1.083,1.0829,1.0829,0,1.0816,1.0822,1.0816,1.0814,1.0811,1.081,1.081,1.0806,1.082,1.0816,1.0812,1.0811,1.0809,1.0806,1.0808,1.0811,1.0823,1.0824,1.0822,1.0817,1.0815,1.0817,1.0868,1.0825,1.0825,1.0826,1.0826,1.0826,1.0777,1.0769,1.0772,1.0767,1.0769,1.077,1.0764,1.0771,1.0767,1.0766,1.0775,1.077,1.0775,1.0778,1.0781,1.0778,1.0786,1.0782,1.078,1.0779,1.0777,1.0816,1.0779,1.0779,1.0779,1.0779,1.0779,0,1.0726,1.0731,1.0726,1.0727,1.0724,1.0737,1.0739,1.0736,1.0731,1.0735,1.0734,1.0732,1.0731,1.074,1.0741,1.0738,1.0744,1.0737,1.0738,1.0739,1.077,1.0772,1.0733,1.0733,1.0733,1.0733,1.0733,1.0733,1.0699,1.0687,1.0694,1.0684,1.0689,1.0684,1.0684,1.0686,1.069,1.0686,1.0686,1.0692,1.07,1.0702,1.0703,1.0706,1.0706,1.0698,1.0703,1.0732,1.0736,1.074,1.0743,1.0698,1.0698,1.0673,1.0672,1.0672]},{"header":{"parameterUnit":"m.s-1","parameterCategory":1,"la1":30.2991,"la2":30.254,"lo1":-89.0895,"lo2":-89.0444,"dy":0.0017,"dx":0.0017,"nx":28,"ny":28,"refTime":"2025-11-08T09:00:00:Z","depth":0,"parameterNumber":3,"parameterNumberName":"V-component_of_WINDS"},"data":[0,0,0,0,0,0,0,0,0,0,0,0,0,0,0,0,0,0,0,0,0,0,0,0,0,0,0,0,0,0,0,0,0,0,0,0,0,0,0,0,0,0,0,0,0,0,0,0,0,0,0,0,0,0,0,0,0,0,2.7191,2.7192,0,2.7262,2.7262,2.7263,2.7286,2.7286,2.7286,2.7286,2.7354,2.7356,2.7358,0,0,0,0,0,0,0,0,0,0,0,0,0,2.7073,2.7075,2.7191,2.7192,2.7193,2.7261,2.7262,2.7263,2.7287,2.7286,2.7286,2.7285,2.7354,2.7356,2.7359,0,0,0,0,0,0,0,0,0,0,0,0,0,2.7132,2.7076,2.7191,2.7213,2.7216,2.7261,2.7262,2.7264,2.7287,2.7286,2.7286,2.7285,2.7353,2.7356,2.7359,2.7387,0,0,2.7369,2.737,0,0,0,0,0,0,0,0,2.7128,2.7136,2.7209,2.7212,2.7215,2.7265,2.7246,2.7305,2.7287,2.726,2.7286,2.7285,2.7325,2.733,2.7344,2.739,2.7393,2.7369,2.7371,2.7372,2.7373,0,0,0,0,0,0,0,2.7124,2.7133,2.7219,2.721,2.7213,2.7218,2.7226,2.7257,2.7294,2.7262,2.7264,2.7272,2.7326,2.7341,2.7346,2.7394,2.7369,2.7372,2.7373,2.7375,2.7464,2.7465,0,0,0,0,0,0,2.7117,2.713,2.7217,2.7221,2.717,2.722,2.7229,2.7249,2.7293,2.73,2.7272,2.7273,2.7336,2.7342,2.7348,2.7383,2.7372,2.7375,2.7377,2.7464,2.7464,2.7465,0,0,0,0,0,0,2.7114,2.7125,2.7214,2.7176,2.7188,2.7223,2.7245,2.7251,2.7266,2.7301,2.7307,2.7281,2.7336,2.7344,2.7377,2.7386,2.7376,2.7379,2.7463,2.7464,2.7465,2.7453,0,0,0,0,0,0,2.7111,2.7124,2.7136,2.7176,2.719,2.7243,2.7246,2.7252,2.7271,2.7273,2.7311,2.7317,2.7336,2.7372,2.738,2.739,2.7382,2.7463,2.7464,2.7464,2.7453,2.7453,2.7454,0,0,0,0,0,2.7107,2.7129,2.7136,2.7147,2.7206,2.7243,2.7251,2.7273,2.7272,2.7284,2.7306,2.7316,2.7383,2.7375,2.7384,2.7395,2.7462,2.7463,2.7464,2.7452,2.7453,2.7454,0,0,0,0,0,0,2.7089,2.7135,2.7143,2.718,2.7208,2.7247,2.7263,2.7273,2.7301,2.7301,2.7327,2.7335,2.7366,2.7384,2.7374,2.7424,2.7423,2.7426,2.7411,2.7412,2.7412,2.7407,2.7384,0,0,0,0,0,2.7089,2.7117,2.7155,2.7184,2.7197,2.7227,2.7245,2.7259,2.7289,2.73,2.7325,2.7352,2.7379,2.7396,2.7423,2.7455,2.7463,2.7467,2.7467,2.7467,2.747,2.7486,2.7488,2.7469,2.7469,2.7469,0,0,2.709,2.7119,2.7135,2.7181,2.7204,2.7231,2.7237,2.7266,2.7285,2.7304,2.7337,2.7356,2.7387,2.7419,2.7435,2.7435,2.7477,2.7469,2.7469,2.7471,2.7487,2.7489,2.7491,2.7469,2.7469,2.7469,0,0,2.7105,2.713,2.7156,2.7179,2.7214,2.7234,2.724,2.7277,2.7291,2.7324,2.7339,2.7361,2.7408,2.7429,2.7446,2.7467,2.7477,2.7475,2.7478,2.7493,2.7495,2.7496,2.7503,2.7505,2.7477,2.7477,2.7477,0,2.7101,2.7144,2.7168,2.7195,2.7214,2.7233,2.7258,2.7279,2.732,2.7332,2.7333,2.7391,2.7413,2.745,2.7455,2.7468,2.7475,2.7471,2.7493,2.7495,2.7496,2.7503,2.7505,2.7477,2.7477,2.7477,2.7477,0,2.7136,2.7165,2.7182,2.7222,2.7243,2.7269,2.7296,2.7314,2.7326,2.7345,2.7377,2.7405,2.7437,2.7447,2.7459,2.7485,2.7484,2.7488,2.7488,2.7497,2.7504,2.7506,2.7476,2.7476,2.7477,2.7477,0,0,2.7143,2.7196,2.7201,2.7219,2.7258,2.728,2.7306,2.7338,2.7353,2.738,2.7401,2.7439,2.7443,2.7462,2.7477,2.7491,2.7504,2.7493,2.7494,2.7494,2.7532,2.7528,2.7531,2.751,2.7511,2.7511,2.7529,0,2.7162,2.7211,2.7233,2.7271,2.7297,2.7315,2.7337,2.7362,2.738,2.7403,2.7423,2.7449,2.7453,2.7464,2.7479,2.7499,2.7512,2.7498,2.7529,2.753,2.7521,2.7535,2.7531,2.7547,2.7532,2.7532,2.7533,0,2.7192,2.722,2.7261,2.7296,2.7308,2.7328,2.7358,2.7381,2.7409,2.7421,2.7441,2.7455,2.7481,2.7479,2.7514,2.7505,2.7518,2.753,2.7531,2.7535,2.7532,2.7538,2.7552,2.7554,2.7537,2.7537,2.7536,0,2.7191,2.7239,2.727,2.7285,2.7326,2.734,2.7357,2.7385,2.7403,2.7429,2.744,2.7468,2.7484,2.7504,2.7525,2.7521,2.7557,2.7557,2.7567,2.7566,2.7574,2.7573,2.759,2.7583,2.7583,2.7583,2.7583,0,2.7211,2.7235,2.727,2.7289,2.7315,2.7339,2.7365,2.7383,2.7408,2.7429,2.7445,2.7465,2.7491,2.7513,2.7528,2.7554,2.7561,2.757,2.7574,2.7569,2.7568,2.7578,2.7577,2.7583,2.7583,2.7583,2.7583,0,2.7215,2.7239,2.7273,2.731,2.7319,2.7337,2.7368,2.7386,2.7404,2.7431,2.7438,2.7466,2.7493,2.7515,2.755,2.7561,2.7587,2.7592,2.7578,2.758,2.7588,2.7587,2.7612,2.7616,2.7607,2.7607,2.7607,0,2.7225,2.7244,2.7283,2.7299,2.7316,2.7342,2.736,2.7383,2.7401,2.7433,2.7447,2.7475,2.7499,2.754,2.7563,2.7589,2.7594,2.7601,2.7598,2.7591,2.7593,2.7592,2.7593,2.7601,2.7601,2.7601,2.7601,0,2.7241,2.7252,2.7278,2.7307,2.7329,2.7353,2.7377,2.7389,2.7417,2.7435,2.7463,2.7482,2.7517,2.7544,2.7572,2.7589,2.7599,2.7602,2.7605,2.76,2.7591,2.7595,2.7578,2.7601,2.7601,2.7601,2.7601,2.7601,2.7248,2.7265,2.7294,2.7322,2.7343,2.7366,2.7384,2.7404,2.7429,2.746,2.7472,2.75,2.7526,2.7565,2.7582,2.7603,2.7604,2.7609,2.7611,2.7612,2.761,2.7587,2.7608,2.7608,2.7608,2.7608,2.7608,0,2.7263,2.7283,2.7309,2.7343,2.7364,2.7373,2.74,2.7417,2.7442,2.7466,2.7489,2.752,2.7546,2.757,2.7597,2.7609,2.7614,2.7615,2.7614,2.7618,2.7608,2.7602,2.761,2.761,2.761,2.761,2.761,2.761,2.7274,2.7303,2.7318,2.7357,2.7376,2.7405,2.7419,2.7439,2.7458,2.7493,2.7515,2.7531,2.7554,2.7583,2.7606,2.7613,2.7621,2.7621,2.7628,2.7619,2.7618,2.7618,2.7613,2.7623,2.7623,2.7636,2.7636,2.7636]}]]